Location: Tamazert
(32.6352°N, 5.2072°W)
Time: 03:19:59
(UTC+00:00)

Tiros 1 despin weight - Pass Details

Date: 08 October 2022
Orbit: 590 x 637 km, 48.2° (Epoch: 30 November)

Event Time Altitude Azimuth Distance (km) Brightness Sun altitude
Rises 19:51:09 0° 314° (NW) 2,880 ? -24.9°
Reaches altitude 10° 19:53:32 10° 320° (NW) 1,981 ? -25.4°
Enters shadow 19:56:47 37° 355° (N) 968 ? -26.1°
Maximum altitude 19:57:55 45° 34° (NE) 852 - -26.3°
Drops below altitude 10° 20:02:20 10° 107° (ESE) 2,002 - -27.2°
Sets 20:04:45 0° 114° (ESE) 2,913 - -27.7°
